TimeMST,TemperatureF,Dew PointF,Humidity,Sea Level PressureIn,VisibilityMPH,Wind Direction,Wind SpeedMPH,Gust SpeedMPH,PrecipitationIn,Events,Conditions,WindDirDegrees,DateUTC
12:15 AM,46.4,32.0,57,29.97,10.0,Calm,Calm,-,N/A,,Clear,0,2013-11-20 07:15:00
12:35 AM,46.4,32.0,57,29.97,10.0,Calm,Calm,-,N/A,,Clear,0,2013-11-20 07:35:00
12:55 AM,46.4,32.0,57,29.97,10.0,Calm,Calm,-,N/A,,Clear,0,2013-11-20 07:55:00
1:35 AM,46.4,32.0,57,29.96,10.0,West,3.5,-,N/A,,Clear,280,2013-11-20 08:35:00
1:55 AM,48.2,32.0,54,29.96,10.0,NE,3.5,-,N/A,,Clear,50,2013-11-20 08:55:00
2:15 AM,42.8,30.2,61,29.95,10.0,SE,5.8,-,N/A,,Clear,130,2013-11-20 09:15:00
2:35 AM,42.8,30.2,61,29.95,10.0,SSE,5.8,-,N/A,,Clear,150,2013-11-20 09:35:00
3:35 AM,41.0,30.2,65,29.94,10.0,South,5.8,-,N/A,,Clear,170,2013-11-20 10:35:00
3:55 AM,41.0,30.2,65,29.93,10.0,Calm,Calm,-,N/A,,Clear,0,2013-11-20 10:55:00
4:15 AM,41.0,30.2,65,29.93,10.0,SE,5.8,-,N/A,,Clear,140,2013-11-20 11:15:00
4:35 AM,41.0,30.2,65,29.94,10.0,Calm,Calm,-,N/A,,Clear,0,2013-11-20 11:35:00
4:55 AM,41.0,30.2,65,29.94,10.0,Calm,Calm,-,N/A,,Clear,0,2013-11-20 11:55:00
5:15 AM,37.4,30.2,75,29.94,10.0,Calm,Calm,-,N/A,,Clear,0,2013-11-20 12:15:00
5:35 AM,37.4,28.4,70,29.94,10.0,Calm,Calm,-,N/A,,Clear,0,2013-11-20 12:35:00
5:55 AM,37.4,28.4,70,29.95,10.0,South,3.5,-,N/A,,Clear,180,2013-11-20 12:55:00
6:15 AM,37.4,30.2,75,29.96,10.0,Calm,Calm,-,N/A,,Clear,0,2013-11-20 13:15:00
6:35 AM,39.2,30.2,70,29.97,10.0,SW,4.6,-,N/A,,Clear,220,2013-11-20 13:35:00
6:55 AM,41.0,30.2,65,29.98,10.0,SSW,4.6,-,N/A,,Clear,200,2013-11-20 13:55:00
7:15 AM,41.0,30.2,65,29.98,10.0,SSW,3.5,-,N/A,,Clear,210,2013-11-20 14:15:00
7:35 AM,42.8,32.0,66,29.98,10.0,Calm,Calm,-,N/A,,Clear,0,2013-11-20 14:35:00
7:55 AM,44.6,32.0,61,29.97,10.0,Calm,Calm,-,N/A,,Clear,0,2013-11-20 14:55:00
8:15 AM,44.6,32.0,61,29.97,10.0,Calm,Calm,-,N/A,,Clear,0,2013-11-20 15:15:00
8:35 AM,44.6,32.0,61,29.97,10.0,Calm,Calm,-,N/A,,Clear,0,2013-11-20 15:35:00
8:55 AM,50.0,32.0,50,29.98,10.0,Calm,Calm,-,N/A,,Clear,0,2013-11-20 15:55:00
9:15 AM,50.0,32.0,50,29.99,10.0,SSE,3.5,-,N/A,,Clear,150,2013-11-20 16:15:00
9:35 AM,51.8,32.0,47,29.99,10.0,Calm,Calm,-,N/A,,Clear,0,2013-11-20 16:35:00
9:55 AM,51.8,32.0,47,29.99,10.0,Calm,Calm,-,N/A,,Clear,0,2013-11-20 16:55:00
10:35 AM,55.4,33.8,44,29.98,10.0,Calm,Calm,-,N/A,,Clear,0,2013-11-20 17:35:00
10:55 AM,59.0,33.8,39,29.97,10.0,Calm,Calm,-,N/A,,Clear,0,2013-11-20 17:55:00
11:15 AM,60.8,33.8,36,29.96,10.0,Calm,Calm,-,N/A,,Clear,0,2013-11-20 18:15:00
11:35 AM,62.6,33.8,34,29.95,10.0,Calm,Calm,-,N/A,,Scattered Clouds,0,2013-11-20 18:35:00
11:55 AM,62.6,33.8,34,29.94,10.0,Calm,Calm,-,N/A,,Mostly Cloudy,0,2013-11-20 18:55:00
12:15 PM,64.4,33.8,32,29.93,10.0,SSW,3.5,-,N/A,,Mostly Cloudy,210,2013-11-20 19:15:00
12:35 PM,64.4,33.8,32,29.91,10.0,Calm,Calm,-,N/A,,Mostly Cloudy,0,2013-11-20 19:35:00
12:55 PM,66.2,33.8,30,29.90,10.0,SW,3.5,-,N/A,,Scattered Clouds,220,2013-11-20 19:55:00
1:15 PM,68.0,32.0,26,29.88,10.0,SSW,4.6,-,N/A,,Scattered Clouds,200,2013-11-20 20:15:00
1:35 PM,68.0,33.8,28,29.88,10.0,SSW,6.9,-,N/A,,Mostly Cloudy,200,2013-11-20 20:35:00
1:55 PM,69.8,33.8,27,29.87,10.0,SSW,12.7,19.6,N/A,,Mostly Cloudy,210,2013-11-20 20:55:00
2:15 PM,69.8,35.6,28,29.87,10.0,SW,3.5,-,N/A,,Scattered Clouds,230,2013-11-20 21:15:00
2:35 PM,69.8,33.8,27,29.86,10.0,West,10.4,-,N/A,,Clear,270,2013-11-20 21:35:00
2:55 PM,69.8,32.0,25,29.86,10.0,WNW,12.7,-,N/A,,Clear,300,2013-11-20 21:55:00
3:15 PM,69.8,32.0,25,29.86,10.0,WNW,3.5,-,N/A,,Clear,290,2013-11-20 22:15:00
3:35 PM,71.6,30.2,22,29.86,10.0,West,11.5,17.3,N/A,,Clear,280,2013-11-20 22:35:00
3:55 PM,69.8,30.2,23,29.86,10.0,West,12.7,17.3,N/A,,Clear,260,2013-11-20 22:55:00
4:15 PM,69.8,30.2,23,29.86,10.0,West,9.2,17.3,N/A,,Clear,280,2013-11-20 23:15:00
4:35 PM,69.8,28.4,21,29.86,10.0,West,11.5,-,N/A,,Clear,270,2013-11-20 23:35:00
4:55 PM,68.0,26.6,21,29.86,10.0,West,11.5,-,N/A,,Clear,280,2013-11-20 23:55:00
5:15 PM,64.4,28.4,26,29.86,10.0,WNW,9.2,-,N/A,,Clear,300,2013-11-21 00:15:00
5:35 PM,64.4,28.4,26,29.87,10.0,WNW,9.2,-,N/A,,Clear,290,2013-11-21 00:35:00
5:55 PM,64.4,30.2,28,29.87,10.0,West,9.2,-,N/A,,Clear,270,2013-11-21 00:55:00
6:15 PM,62.6,30.2,30,29.88,10.0,West,8.1,17.3,N/A,,Clear,270,2013-11-21 01:15:00
6:35 PM,62.6,30.2,30,29.89,10.0,NW,8.1,-,N/A,,Clear,310,2013-11-21 01:35:00
6:55 PM,60.8,30.2,31,29.90,10.0,NW,9.2,-,N/A,,Clear,320,2013-11-21 01:55:00
7:15 PM,60.8,32.0,34,29.90,10.0,WNW,10.4,-,N/A,,Clear,300,2013-11-21 02:15:00
7:35 PM,59.0,32.0,36,29.91,10.0,WNW,11.5,-,N/A,,Clear,290,2013-11-21 02:35:00
7:55 PM,59.0,32.0,36,29.91,10.0,West,9.2,-,N/A,,Clear,280,2013-11-21 02:55:00
8:15 PM,57.2,32.0,38,29.92,10.0,WNW,10.4,-,N/A,,Clear,290,2013-11-21 03:15:00
8:35 PM,57.2,32.0,38,29.92,10.0,WNW,9.2,-,N/A,,Clear,290,2013-11-21 03:35:00
8:55 PM,55.4,32.0,41,29.93,10.0,WNW,9.2,-,N/A,,Scattered Clouds,290,2013-11-21 03:55:00
9:15 PM,55.4,32.0,41,29.93,10.0,WNW,9.2,-,N/A,,Clear,290,2013-11-21 04:15:00
9:35 PM,53.6,32.0,44,29.94,10.0,WNW,10.4,-,N/A,,Clear,290,2013-11-21 04:35:00
9:55 PM,53.6,32.0,44,29.94,10.0,WNW,9.2,-,N/A,,Clear,290,2013-11-21 04:55:00
10:15 PM,53.6,32.0,44,29.94,10.0,West,8.1,-,N/A,,Clear,280,2013-11-21 05:15:00
10:35 PM,53.6,32.0,44,29.95,10.0,WNW,6.9,-,N/A,,Clear,290,2013-11-21 05:35:00
10:55 PM,48.2,30.2,50,29.96,10.0,Calm,Calm,-,N/A,,Scattered Clouds,0,2013-11-21 05:55:00
11:15 PM,50.0,32.0,50,29.96,10.0,North,4.6,-,N/A,,Mostly Cloudy,360,2013-11-21 06:15:00
11:35 PM,51.8,32.0,47,29.97,10.0,NNW,5.8,-,N/A,,Mostly Cloudy,330,2013-11-21 06:35:00
11:55 PM,50.0,32.0,50,29.97,10.0,NNW,4.6,-,N/A,,Mostly Cloudy,330,2013-11-21 06:55:00